period_start,C,m1,H,J0,J1,J2,J3,J4,J5,JA,JB,JC,JD,JJ,JK,JN,#
2018-04-27 00:00:07,0.12,0.81,0.00,27.46,30.22,32.91,13.62,46.63,1010.89,2014.00,3118.85,2832.97,3249.25,600.16,584.13,7.17,0000 0000 0000 0000 000000
2018-04-27 00:05:08,0.12,0.82,0.00,27.47,30.24,32.94,13.62,46.62,1010.79,2014.00,3116.40,2831.24,3247.23,599.94,583.72,7.22,0000 0000 0000 0000 000000
2018-04-27 00:10:10,0.13,0.82,0.00,27.50,30.26,32.96,13.53,46.55,1010.78,2014.00,3113.88,2829.50,3245.13,599.79,583.55,7.27,0000 0000 0000 0000 000000
2018-04-27 00:15:11,0.12,0.83,0.00,27.54,30.29,32.98,13.57,46.63,1010.77,2014.00,3111.40,2827.78,3243.10,600.10,583.82,7.32,0000 0000 0000 0000 000000
2018-04-27 00:20:12,0.11,0.84,0.00,27.58,30.32,32.99,13.65,46.62,1010.76,2013.99,3109.12,2826.12,3241.17,600.06,583.63,7.37,0000 0000 0000 0000 000000
2018-04-27 00:25:13,0.12,0.84,0.00,27.62,30.34,33.01,13.55,46.59,1010.76,2013.95,3106.87,2824.48,3239.14,599.88,583.28,7.42,0000 0000 0000 0000 000000
2018-04-27 00:30:14,0.12,0.85,0.00,27.65,30.37,33.03,13.56,46.69,1010.76,2013.95,3104.37,2822.70,3237.10,599.81,583.24,7.47,0000 0000 0000 0000 000000
2018-04-27 00:35:16,0.10,0.85,0.00,27.72,30.40,33.07,13.67,46.78,1010.75,2013.75,3101.97,2821.00,3235.10,600.00,583.37,7.52,0000 0000 0000 0000 000000
2018-04-27 00:40:17,0.06,0.86,0.00,27.74,30.42,33.10,13.60,46.77,1010.75,2013.17,3099.57,2819.23,3233.03,599.82,583.05,7.57,0000 0000 0000 0000 000000
2018-04-27 00:45:18,0.11,0.86,0.00,27.76,30.44,33.11,13.64,46.75,1010.71,2013.02,3097.22,2817.59,3231.01,599.98,583.26,7.62,0000 0000 0000 0000 000000
2018-04-27 00:50:19,0.12,0.87,0.00,27.80,30.46,33.14,13.57,46.70,1010.45,2013.01,3094.88,2815.96,3229.04,599.95,582.87,7.68,0000 0000 0000 0000 000000
2018-04-27 00:55:21,0.11,0.88,0.00,27.82,30.49,33.16,13.56,46.63,1010.30,2013.00,3092.55,2814.48,3227.12,600.30,583.15,7.73,0000 0000 0000 0000 000000
2018-04-27 01:00:22,0.12,0.88,0.00,27.84,30.51,33.19,13.49,46.60,1010.27,2013.00,3090.15,2812.80,3225.16,600.02,582.79,7.78,0000 0000 0000 0000 000000
2018-04-27 01:05:24,0.11,0.89,0.00,27.88,30.52,33.21,13.61,46.63,1010.27,2013.00,3087.86,2811.19,3223.25,600.33,583.06,7.83,0000 0000 0000 0000 000000
2018-04-27 01:10:25,0.12,0.89,0.00,27.92,30.55,33.25,13.63,46.63,1010.28,2013.00,3085.56,2809.55,3221.27,600.31,583.03,7.88,0000 0000 0000 0000 000000
2018-04-27 01:15:26,0.12,0.90,0.00,27.96,30.57,33.26,13.68,46.72,1010.28,2012.95,3083.11,2807.82,3219.24,600.23,582.79,7.93,0000 0000 0000 0000 000000
2018-04-27 01:20:27,0.10,0.91,0.00,27.97,30.59,33.28,13.73,46.67,1010.28,2012.94,3080.92,2806.22,3217.32,600.35,582.85,7.98,0000 0000 0000 0000 000000
2018-04-27 01:25:29,0.10,0.91,0.00,28.03,30.61,33.32,13.59,46.64,1010.27,2012.72,3078.40,2804.52,3215.30,600.14,582.66,8.03,0000 0000 0000 0000 000000
2018-04-27 01:30:30,0.09,0.92,0.00,28.07,30.64,33.33,13.63,46.54,1010.27,2012.38,3076.06,2802.85,3213.35,600.19,582.51,8.08,0000 0000 0000 0000 000000
2018-04-27 01:35:31,0.09,0.92,0.00,28.10,30.66,33.35,13.53,46.58,1010.27,2012.14,3073.84,2801.28,3211.44,600.17,582.41,8.13,0000 0000 0000 0000 000000
2018-04-27 01:40:32,0.12,0.93,0.00,28.14,30.69,33.38,13.44,46.47,1010.27,2012.05,3071.40,2799.58,3209.40,599.91,582.19,8.18,0000 0000 0000 0000 000000
2018-04-27 01:45:34,0.11,0.93,0.00,28.19,30.71,33.41,13.58,46.57,1010.27,2012.00,3069.25,2797.84,3207.41,599.90,582.04,8.23,0000 0000 0000 0000 000000
2018-04-27 01:50:35,0.11,0.94,0.00,28.24,30.74,33.44,13.59,46.71,1010.26,2012.00,3067.07,2796.26,3205.51,600.35,582.24,8.28,0000 0000 0000 0000 000000
2018-04-27 01:55:36,0.12,0.94,0.00,28.27,30.77,33.48,13.57,46.62,1010.26,2011.99,3064.83,2794.65,3203.57,600.01,581.98,8.33,0000 0000 0000 0000 000000
2018-04-27 02:00:38,0.12,0.95,0.00,28.32,30.81,33.50,13.63,46.67,1010.26,2011.97,3062.48,2792.90,3201.58,600.20,582.11,8.38,0000 0000 0000 0000 000000
2018-04-27 02:05:39,0.10,0.96,0.00,28.38,30.83,33.53,13.59,46.67,1010.24,2011.87,3060.03,2791.24,3199.62,600.08,581.76,8.43,0000 0000 0000 0000 000000
2018-04-27 02:10:41,0.08,0.96,0.00,28.40,30.86,33.55,13.56,46.68,1010.26,2011.44,3057.72,2789.58,3197.70,600.31,581.97,8.48,0000 0000 0000 0000 000000
2018-04-27 02:15:42,0.09,0.97,0.00,28.46,30.90,33.59,13.50,46.61,1010.27,2011.14,3055.62,2788.01,3195.88,600.18,581.78,8.53,0000 0000 0000 0000 000000
2018-04-27 02:20:43,0.11,0.97,0.00,28.49,30.93,33.62,13.50,46.53,1010.27,2011.01,3053.33,2786.40,3193.90,600.18,581.58,8.58,0000 0000 0000 0000 000000
2018-04-27 02:25:45,0.12,0.98,0.00,28.55,30.96,33.65,13.57,46.56,1010.26,2011.00,3051.05,2784.78,3191.98,600.34,581.83,8.63,0000 0000 0000 0000 000000
2018-04-27 02:30:46,0.13,0.98,0.00,28.63,30.99,33.69,13.50,46.50,1010.25,2011.00,3048.62,2783.06,3189.96,599.85,581.11,8.68,0000 0000 0000 0000 000000
2018-04-27 02:35:47,0.12,0.99,0.00,28.65,31.03,33.73,13.60,46.47,1010.20,2010.98,3046.23,2781.37,3188.00,600.03,581.21,8.73,0000 0000 0000 0000 000000
2018-04-27 02:40:48,0.11,1.00,0.00,28.75,31.06,33.76,13.49,46.42,1010.08,2010.89,3044.00,2779.70,3186.03,599.81,580.69,8.78,0000 0000 0000 0000 000000
2018-04-27 02:45:50,0.07,1.00,0.00,28.78,31.10,33.80,13.34,46.42,1009.94,2010.54,3041.74,2778.03,3184.07,599.55,580.54,8.83,0000 0000 0000 0000 000000
2018-04-27 02:50:51,0.08,1.00,0.00,28.82,31.14,33.83,13.52,46.63,1009.84,2010.20,3039.71,2776.52,3182.23,599.91,580.60,8.88,0000 0000 0000 0000 000000
2018-04-27 02:55:52,0.11,1.01,0.00,28.87,31.17,33.88,13.54,46.63,1009.88,2010.02,3037.43,2774.89,3180.34,600.22,580.68,8.93,0000 0000 0000 0000 000000
2018-04-27 03:00:54,0.12,1.01,0.00,28.87,31.21,33.92,13.57,46.63,1009.87,2010.00,3035.15,2773.31,3178.42,600.07,580.62,8.98,0000 0000 0000 0000 000000
2018-04-27 03:05:55,0.12,1.02,0.00,28.92,31.25,33.96,13.52,46.40,1010.03,2010.00,3032.85,2771.61,3176.45,599.56,580.08,9.03,0000 0000 0000 0000 000000
2018-04-27 03:10:56,0.12,1.03,0.00,28.97,31.28,33.99,13.63,46.45,1009.98,2009.98,3030.44,2769.94,3174.43,600.11,580.66,9.08,0000 0000 0000 0000 000000
2018-04-27 03:15:57,0.10,1.03,0.00,29.02,31.32,34.03,13.44,46.36,1009.89,2009.78,3028.18,2768.31,3172.47,600.00,580.36,9.13,0000 0000 0000 0000 000000
2018-04-27 03:20:58,0.07,1.04,0.00,29.04,31.36,34.07,13.56,46.38,1009.86,2009.24,3025.71,2766.58,3170.47,600.18,580.43,9.18,0000 0000 0000 0000 000000
2018-04-27 03:26:00,0.11,1.04,0.00,29.10,31.39,34.10,13.44,46.36,1009.83,2009.01,3023.47,2764.86,3168.52,599.85,579.89,9.23,0000 0000 0000 0000 000000
2018-04-27 03:31:01,0.11,1.05,0.00,29.17,31.42,34.14,13.50,46.39,1009.80,2009.00,3021.41,2763.40,3166.63,600.10,580.11,9.28,0000 0000 0000 0000 000000
2018-04-27 03:36:02,0.12,1.05,0.00,29.19,31.46,34.18,13.45,46.50,1009.79,2009.00,3019.18,2761.70,3164.62,600.02,579.92,9.33,0000 0000 0000 0000 000000
2018-04-27 03:41:04,0.11,1.06,0.00,29.18,31.50,34.22,13.42,46.50,1009.79,2008.92,3016.86,2760.02,3162.70,600.02,579.94,9.38,0000 0000 0000 0000 000000
2018-04-27 03:46:05,0.10,1.07,0.00,29.20,31.53,34.25,13.46,46.52,1009.78,2008.68,3014.62,2758.44,3160.81,600.07,579.93,9.43,0000 0000 0000 0000 000000
2018-04-27 03:51:06,0.07,1.07,0.00,29.26,31.57,34.29,13.52,46.43,1009.78,2008.24,3012.30,2756.82,3158.87,600.46,580.16,9.48,0000 0000 0000 0000 000000
2018-04-27 03:56:07,0.11,1.07,0.00,29.28,31.61,34.33,13.45,46.35,1009.78,2008.01,3009.91,2755.09,3156.83,600.01,579.76,9.53,0000 0000 0000 0000 000000
2018-04-27 04:01:09,0.12,1.08,0.00,29.31,31.64,34.37,13.47,46.31,1009.78,2008.00,3007.57,2753.43,3154.91,600.12,579.78,9.58,0000 0000 0000 0000 000000
2018-04-27 04:06:10,0.11,1.09,0.00,29.38,31.68,34.41,13.47,46.41,1009.78,2008.00,3005.52,2751.87,3152.97,600.06,579.52,9.63,0000 0000 0000 0000 000000
2018-04-27 04:11:11,0.11,1.09,0.00,29.43,31.71,34.44,13.57,46.40,1009.78,2007.98,3003.37,2750.43,3151.12,599.95,579.39,9.68,0000 0000 0000 0000 000000
2018-04-27 04:16:12,0.12,1.10,0.00,29.47,31.75,34.48,13.54,46.45,1009.78,2007.90,3001.10,2748.80,3149.17,600.28,579.70,9.73,0000 0000 0000 0000 000000
2018-04-27 04:21:14,0.06,1.10,0.00,29.49,31.79,34.51,13.47,46.40,1009.78,2007.40,2998.77,2747.16,3147.19,600.20,579.64,9.78,0000 0000 0000 0000 000000
2018-04-27 04:26:15,0.10,1.11,0.00,29.53,31.83,34.55,13.52,46.30,1009.77,2007.05,2996.42,2745.50,3145.23,600.08,579.18,9.83,0000 0000 0000 0000 000000
2018-04-27 04:31:17,0.11,1.11,0.00,29.54,31.86,34.59,13.55,46.48,1009.74,2007.00,2994.14,2743.86,3143.36,600.22,579.62,9.88,0000 0000 0000 0000 000000
2018-04-27 04:36:18,0.11,1.12,0.00,29.61,31.90,34.63,13.43,46.37,1009.72,2007.00,2991.97,2742.31,3141.44,600.14,579.20,9.94,0000 0000 0000 0000 000000
2018-04-27 04:41:19,0.12,1.13,0.00,29.67,31.94,34.67,13.45,46.44,1009.72,2007.00,2989.85,2740.72,3139.61,600.38,579.25,9.99,0000 0000 0000 0000 000000
2018-04-27 04:46:20,0.11,1.13,0.00,29.67,31.98,34.69,13.46,46.39,1009.74,2006.97,2987.65,2739.21,3137.77,600.18,579.14,10.04,0000 0000 0000 0000 000000
2018-04-27 04:51:22,0.09,1.14,0.00,29.71,32.01,34.73,13.47,46.42,1009.77,2006.74,2985.49,2737.58,3135.89,600.23,579.13,10.09,0000 0000 0000 0000 000000
2018-04-27 04:56:23,0.06,1.14,0.00,29.74,32.05,34.77,13.48,46.40,1009.75,2006.18,2983.34,2735.95,3134.19,600.05,578.88,10.14,0000 0000 0000 0000 000000
2018-04-27 05:01:24,0.10,1.15,0.00,29.76,32.09,34.80,13.42,46.36,1009.68,2006.02,2981.31,2734.48,3132.41,600.20,578.94,10.19,0000 0000 0000 0000 000000
2018-04-27 05:06:25,0.12,1.15,0.00,29.79,32.13,34.84,13.41,46.37,1009.48,2006.00,2979.15,2732.87,3130.55,600.21,578.88,10.24,0000 0000 0000 0000 000000
2018-04-27 05:11:27,0.10,1.16,0.00,29.83,32.16,34.88,13.43,46.30,1009.38,2005.98,2977.12,2731.33,3128.71,600.04,578.58,10.29,0000 0000 0000 0000 000000
2018-04-27 05:16:28,0.11,1.16,0.00,29.84,32.21,34.90,13.47,46.41,1009.32,2005.88,2975.06,2729.79,3126.94,600.02,578.43,10.34,0000 0000 0000 0000 000000
2018-04-27 05:21:30,0.05,1.17,0.00,29.88,32.24,34.95,13.40,46.34,1009.32,2005.36,2972.93,2728.31,3125.13,600.03,578.35,10.39,0000 0000 0000 0000 000000
2018-04-27 05:26:31,0.10,1.17,0.00,29.91,32.28,34.98,13.55,46.51,1009.30,2005.08,2970.70,2726.73,3123.27,600.21,578.42,10.44,0000 0000 0000 0000 000000
2018-04-27 05:31:32,0.11,1.18,0.00,29.94,32.31,35.02,13.55,46.33,1009.30,2005.01,2968.55,2725.20,3121.44,600.56,578.64,10.49,0000 0000 0000 0000 000000
2018-04-27 05:36:33,0.12,1.18,0.00,29.94,32.35,35.05,13.36,46.31,1009.31,2004.99,2966.55,2723.66,3119.67,599.82,578.02,10.54,0000 0000 0000 0000 000000
2018-04-27 05:41:34,0.10,1.19,0.00,29.97,32.38,35.10,13.44,46.37,1009.31,2004.96,2964.48,2722.21,3117.93,599.85,578.05,10.59,0000 0000 0000 0000 000000
2018-04-27 05:46:35,0.10,1.19,0.00,29.99,32.41,35.12,13.42,46.42,1009.31,2004.83,2962.48,2720.69,3116.14,600.04,578.12,10.64,0000 0000 0000 0000 000000
2018-04-27 05:51:36,0.05,1.20,0.00,30.01,32.45,35.15,13.54,46.37,1009.30,2004.33,2960.34,2719.17,3114.32,600.20,578.20,10.69,0000 0000 0000 0000 000000
2018-04-27 05:56:38,0.11,1.20,0.00,30.05,32.48,35.19,13.33,46.15,1009.29,2004.05,2958.16,2717.64,3112.49,599.92,577.93,10.74,0000 0000 0000 0000 000000
2018-04-27 06:01:39,0.11,1.21,0.00,30.08,32.51,35.21,13.42,46.33,1009.30,2004.00,2955.99,2716.14,3110.71,599.94,577.96,10.79,0000 0000 0000 0000 000000
2018-04-27 06:06:40,0.11,1.21,0.00,30.11,32.54,35.25,13.42,46.22,1009.29,2004.00,2954.02,2714.68,3108.98,600.15,577.95,10.84,0000 0000 0000 0000 000000
2018-04-27 06:11:41,0.11,1.22,0.00,30.13,32.58,35.27,13.46,46.28,1009.29,2004.00,2951.94,2713.11,3107.23,599.50,577.47,10.89,0000 0000 0000 0000 000000
2018-04-27 06:16:43,0.12,1.22,0.00,30.13,32.61,35.30,13.45,46.27,1009.29,2003.97,2949.90,2711.69,3105.44,600.21,578.03,10.94,0000 0000 0000 0000 000000
2018-04-27 06:21:44,0.09,1.23,0.00,30.19,32.64,35.32,13.50,46.26,1009.28,2003.78,2947.71,2710.10,3103.63,600.41,578.11,10.99,0000 0000 0000 0000 000000
2018-04-27 06:26:45,0.08,1.23,0.00,30.20,32.67,35.36,13.40,46.23,1009.24,2003.42,2945.57,2708.62,3101.82,600.00,577.59,11.04,0000 0000 0000 0000 000000
2018-04-27 06:31:46,0.07,1.24,0.00,30.24,32.70,35.40,13.45,46.23,1009.25,2003.07,2943.66,2707.14,3100.06,599.72,577.32,11.09,0000 0000 0000 0000 000000
2018-04-27 06:36:48,0.12,1.24,0.00,30.24,32.73,35.42,13.43,46.25,1009.27,2003.00,2941.65,2705.61,3098.21,599.96,577.57,11.14,0000 0000 0000 0000 000000
2018-04-27 06:41:49,0.11,1.25,0.00,30.25,32.76,35.45,13.44,46.26,1009.27,2003.00,2939.45,2704.09,3096.47,600.15,577.77,11.19,0000 0000 0000 0000 000000
2018-04-27 06:46:50,0.12,1.26,0.00,30.28,32.79,35.47,13.32,46.20,1009.28,2003.00,2937.19,2702.53,3094.64,599.76,577.23,11.24,0000 0000 0000 0000 000000
2018-04-27 06:51:52,0.10,1.26,0.00,30.32,32.82,35.50,13.50,46.23,1009.29,2002.99,2935.35,2701.09,3092.90,600.22,577.69,11.29,0000 0000 0000 0000 000000
2018-04-27 06:56:53,0.09,1.27,0.00,30.33,32.85,35.53,13.44,46.17,1009.28,2002.84,2933.43,2699.66,3091.25,600.00,577.44,11.34,0000 0000 0000 0000 000000
2018-04-27 07:01:54,0.05,1.27,0.00,30.38,32.88,35.55,13.41,46.15,1009.28,2002.28,2931.37,2698.18,3089.51,599.92,577.24,11.39,0000 0000 0000 0000 000000
2018-04-27 07:06:56,0.10,1.27,0.00,30.38,32.91,35.59,13.39,46.24,1009.24,2002.09,2929.43,2696.74,3087.85,599.81,577.28,11.44,0000 0000 0000 0000 000000
2018-04-27 07:11:57,0.10,1.28,0.00,30.42,32.94,35.61,13.43,46.15,1009.22,2002.01,2927.50,2695.39,3086.23,600.23,577.45,11.49,0000 0000 0000 0000 000000
2018-04-27 07:16:58,0.11,1.28,0.00,30.41,32.96,35.64,13.41,46.24,1009.19,2002.00,2925.41,2693.89,3084.59,600.25,577.48,11.54,0000 0000 0000 0000 000000
2018-04-27 07:22:00,0.11,1.29,0.00,30.43,32.98,35.67,13.42,46.20,1009.19,2002.00,2923.34,2692.49,3082.80,600.26,577.38,11.59,0000 0000 0000 0000 000000
2018-04-27 07:27:01,0.12,1.30,0.00,30.43,33.01,35.71,13.45,46.24,1009.26,2001.96,2921.08,2690.86,3080.97,599.84,577.15,11.64,0000 0000 0000 0000 000000
2018-04-27 07:32:03,0.09,1.30,0.00,30.46,33.04,35.73,13.48,46.32,1009.28,2001.75,2918.80,2689.30,3079.15,600.19,577.37,11.69,0000 0000 0000 0000 000000
2018-04-27 07:37:04,0.09,1.31,0.00,30.48,33.06,35.75,13.38,46.18,1009.27,2001.37,2916.50,2687.72,3077.41,600.05,577.13,11.74,0000 0000 0000 0000 000000
2018-04-27 07:42:05,0.08,1.31,0.00,30.49,33.09,35.77,13.38,46.20,1009.29,2001.11,2914.53,2686.45,3075.68,599.98,577.08,11.79,0000 0000 0000 0000 000000
2018-04-27 07:47:07,0.10,1.32,0.00,30.52,33.11,35.80,13.41,46.21,1009.28,2001.01,2912.48,2684.99,3074.01,599.81,576.89,11.84,0000 0000 0000 0000 000000
2018-04-27 07:52:08,0.12,1.32,0.00,30.51,33.13,35.83,13.41,46.13,1009.27,2001.00,2910.31,2683.49,3072.26,600.11,577.19,11.89,0000 0000 0000 0000 000000
2018-04-27 07:57:09,0.11,1.33,0.00,30.52,33.16,35.84,13.40,46.16,1009.28,2001.00,2908.24,2682.03,3070.68,600.13,577.21,11.94,0000 0000 0000 0000 000000
2018-04-27 08:02:10,0.11,1.33,0.00,30.51,33.18,35.87,13.45,46.12,1009.27,2001.00,2906.14,2680.60,3069.01,600.08,577.19,11.99,0000 0000 0000 0000 000000
2018-04-27 08:07:12,0.11,1.34,0.00,30.53,33.20,35.89,13.46,46.15,1009.28,2000.90,2903.85,2679.05,3067.27,600.16,577.14,12.04,0000 0000 0000 0000 000000
2018-04-27 08:12:13,0.09,1.34,0.00,30.55,33.22,35.91,13.40,46.14,1009.29,2000.71,2901.85,2677.66,3065.60,600.19,577.21,12.09,0000 0000 0000 0000 000000
2018-04-27 08:17:14,0.05,1.35,0.00,30.58,33.25,35.93,13.40,46.23,1009.28,2000.35,2900.01,2676.35,3064.04,599.80,576.81,12.14,0000 0000 0000 0000 000000
2018-04-27 08:22:15,0.11,1.35,0.00,30.58,33.27,35.95,13.45,46.18,1009.24,2000.10,2897.80,2674.84,3062.33,600.19,577.18,12.20,0000 0000 0000 0000 000000
2018-04-27 08:27:16,0.10,1.36,0.00,30.62,33.29,35.97,13.48,46.17,1009.25,2000.02,2895.80,2673.51,3060.68,600.39,577.18,12.25,0000 0000 0000 0000 000000
2018-04-27 08:32:17,0.11,1.36,0.00,30.63,33.31,36.00,13.37,46.09,1009.25,2000.00,2893.66,2672.00,3058.96,599.74,576.60,12.30,0000 0000 0000 0000 000000
2018-04-27 08:37:18,0.10,1.37,0.00,30.64,33.33,36.01,13.40,46.17,1009.23,2000.00,2891.80,2670.70,3057.45,599.71,576.62,12.35,0000 0000 0000 0000 000000
2018-04-27 08:42:20,0.11,1.37,0.00,30.64,33.35,36.03,13.39,46.15,1009.16,2000.00,2889.81,2669.35,3055.80,600.00,576.86,12.40,0000 0000 0000 0000 000000
2018-04-27 08:47:21,0.10,1.38,0.00,30.65,33.37,36.05,13.44,46.23,1009.01,1999.99,2887.93,2667.95,3054.29,600.06,576.74,12.45,0000 0000 0000 0000 000000
2018-04-27 08:52:22,0.12,1.39,0.00,30.63,33.40,36.08,13.45,46.14,1009.00,1999.98,2886.13,2666.64,3052.69,600.01,576.73,12.50,0000 0000 0000 0000 000000
2018-04-27 08:57:23,0.06,1.39,0.00,30.64,33.41,36.09,13.52,46.13,1009.08,1999.80,2884.25,2665.25,3051.05,600.32,577.05,12.55,0000 0000 0000 0000 000000
2018-04-27 09:02:24,0.10,1.39,0.00,30.67,33.43,36.10,13.50,46.27,1009.17,1999.59,2882.23,2663.88,3049.49,600.18,576.96,12.60,0000 0000 0000 0000 000000
2018-04-27 09:07:26,0.06,1.40,0.00,30.68,33.45,36.11,13.47,46.17,1009.14,1999.38,2880.52,2662.59,3048.03,599.90,576.52,12.65,0000 0000 0000 0000 000000
2018-04-27 09:12:27,0.09,1.40,0.00,30.65,33.47,36.14,13.41,46.18,1008.98,1999.14,2878.71,2661.28,3046.45,599.73,576.40,12.70,0000 0000 0000 0000 000000
2018-04-27 09:17:28,0.10,1.41,0.00,30.67,33.48,36.16,13.48,46.21,1008.88,1999.06,2876.81,2659.94,3044.85,599.99,576.57,12.75,0000 0000 0000 0000 000000
2018-04-27 09:22:29,0.11,1.41,0.00,30.69,33.50,36.17,13.39,46.14,1008.89,1999.02,2874.84,2658.66,3043.37,599.74,576.33,12.80,0000 0000 0000 0000 000000
2018-04-27 09:27:31,0.10,1.42,0.00,30.69,33.51,36.18,13.41,46.17,1008.95,1999.01,2872.96,2657.31,3041.74,600.27,576.91,12.85,0000 0000 0000 0000 000000
2018-04-27 09:32:32,0.09,1.42,0.00,30.69,33.52,36.19,13.35,46.13,1008.95,1999.00,2871.13,2656.00,3040.28,600.01,576.49,12.90,0000 0000 0000 0000 000000
2018-04-27 09:37:33,0.11,1.43,0.00,30.70,33.54,36.21,13.50,46.17,1008.87,1999.00,2869.26,2654.69,3038.75,600.02,576.45,12.95,0000 0000 0000 0000 000000
2018-04-27 09:42:34,0.10,1.43,0.00,30.68,33.55,36.22,13.40,46.09,1008.83,1998.99,2867.31,2653.39,3037.12,599.88,576.55,13.00,0000 0000 0000 0000 000000
2018-04-27 09:47:35,0.11,1.44,0.00,30.71,33.57,36.23,13.38,46.08,1008.82,1998.98,2865.31,2651.97,3035.50,599.99,576.54,13.05,0000 0000 0000 0000 000000
2018-04-27 09:52:37,0.11,1.45,0.00,30.72,33.57,36.24,13.37,46.13,1008.82,1998.93,2863.30,2650.58,3033.93,599.69,576.06,13.10,0000 0000 0000 0000 000000
2018-04-27 09:57:38,0.09,1.45,0.00,30.71,33.60,36.26,13.42,46.17,1008.82,1998.85,2861.43,2649.25,3032.43,599.85,576.31,13.15,0000 0000 0000 0000 000000
2018-04-27 10:02:40,0.07,1.46,0.00,30.72,33.60,36.26,13.38,46.11,1008.82,1998.55,2859.42,2647.95,3030.79,599.79,576.27,13.20,0000 0000 0000 0000 000000
2018-04-27 10:07:41,0.10,1.46,0.00,30.73,33.62,36.27,13.42,46.11,1008.82,1998.45,2857.58,2646.62,3029.35,599.98,576.24,13.25,0000 0000 0000 0000 000000
2018-04-27 10:12:42,0.08,1.46,0.00,30.73,33.63,36.30,13.37,46.03,1008.83,1998.22,2855.74,2645.39,3027.79,599.66,576.10,13.30,0000 0000 0000 0000 000000
2018-04-27 10:17:44,0.10,1.47,0.00,30.74,33.65,36.31,13.41,46.18,1008.81,1998.03,2853.71,2643.94,3026.15,599.84,576.29,13.35,0000 0000 0000 0000 000000
2018-04-27 10:22:45,0.11,1.47,0.00,30.74,33.66,36.33,13.47,46.20,1008.80,1998.01,2851.79,2642.60,3024.63,599.98,576.47,13.40,0000 0000 0000 0000 000000
2018-04-27 10:27:46,0.09,1.48,0.00,30.75,33.68,36.35,13.38,46.02,1008.82,1998.00,2849.94,2641.35,3023.12,600.00,576.42,13.45,0000 0000 0000 0000 000000
2018-04-27 10:32:47,0.10,1.48,0.00,30.75,33.70,36.35,13.38,46.07,1008.82,1998.00,2848.05,2640.06,3021.65,599.68,576.06,13.50,0000 0000 0000 0000 000000
2018-04-27 10:37:49,0.11,1.49,0.00,30.75,33.71,36.37,13.42,46.12,1008.81,1998.00,2846.13,2638.73,3020.08,600.05,576.43,13.55,0000 0000 0000 0000 000000
2018-04-27 10:42:50,0.11,1.50,0.00,30.74,33.72,36.38,13.40,46.09,1008.80,1998.00,2844.17,2637.41,3018.53,599.86,576.30,13.60,0000 0000 0000 0000 000000
2018-04-27 10:47:51,0.09,1.50,0.00,30.75,33.74,36.41,13.45,46.07,1008.80,1998.00,2842.26,2636.10,3016.96,600.30,576.56,13.65,0000 0000 0000 0000 000000
2018-04-27 10:52:52,0.12,1.51,0.00,30.75,33.75,36.41,13.44,46.17,1008.80,1997.98,2840.24,2634.76,3015.40,599.91,576.27,13.70,0000 0000 0000 0000 000000
2018-04-27 10:57:54,0.10,1.51,0.00,30.75,33.76,36.42,13.41,46.04,1008.80,1997.94,2838.32,2633.45,3013.84,600.27,576.55,13.75,0000 0000 0000 0000 000000
2018-04-27 11:02:55,0.09,1.52,0.00,30.73,33.77,36.43,13.45,46.11,1008.80,1997.91,2836.49,2632.16,3012.36,600.17,576.44,13.80,0000 0000 0000 0000 000000
2018-04-27 11:07:56,0.10,1.52,0.00,30.73,33.78,36.44,13.38,46.08,1008.80,1997.86,2834.65,2630.87,3010.87,600.02,576.51,13.85,0000 0000 0000 0000 000000
2018-04-27 11:12:57,0.07,1.53,0.00,30.72,33.80,36.45,13.43,46.14,1008.80,1997.59,2832.71,2629.54,3009.34,599.81,576.19,13.90,0000 0000 0000 0000 000000
2018-04-27 11:17:58,0.10,1.53,0.00,30.72,33.80,36.46,13.41,46.03,1008.80,1997.50,2830.76,2628.26,3007.86,600.11,576.54,13.95,0000 0000 0000 0000 000000
2018-04-27 11:22:59,0.09,1.54,0.00,30.70,33.80,36.46,13.36,46.05,1008.80,1997.34,2828.81,2626.94,3006.45,599.91,576.37,14.00,0000 0000 0000 0000 000000
2018-04-27 11:28:01,0.09,1.54,0.00,30.68,33.80,36.46,13.33,46.10,1008.80,1997.15,2826.94,2625.71,3004.93,599.53,576.01,14.05,0000 0000 0000 0000 000000
2018-04-27 11:33:02,0.10,1.55,0.00,30.69,33.81,36.46,13.48,46.13,1008.80,1997.15,2825.11,2624.50,3003.56,600.09,576.57,14.10,0000 0000 0000 0000 000000
2018-04-27 11:38:04,0.09,1.55,0.00,30.69,33.82,36.46,13.41,46.10,1008.80,1997.11,2823.26,2623.26,3002.03,599.47,576.04,14.15,0000 0000 0000 0000 000000
2018-04-27 11:43:05,0.09,1.56,0.00,30.68,33.82,36.46,13.43,46.13,1008.80,1997.03,2821.39,2622.07,3000.53,600.26,576.68,14.20,0000 0000 0000 0000 000000
2018-04-27 11:48:06,0.11,1.56,0.00,30.65,33.82,36.47,13.45,46.11,1008.80,1997.02,2819.44,2620.71,2998.97,600.08,576.66,14.25,0000 0000 0000 0000 000000
2018-04-27 11:53:08,0.11,1.57,0.00,30.65,33.82,36.48,13.38,45.98,1008.80,1997.03,2817.38,2619.42,2997.41,600.11,576.73,14.30,0000 0000 0000 0000 000000
2018-04-27 11:58:09,0.11,1.57,0.00,30.63,33.82,36.49,13.45,46.11,1008.80,1997.01,2815.37,2617.98,2995.74,600.06,576.68,14.35,0000 0000 0000 0000 000000
2018-04-27 12:03:10,0.12,1.58,0.00,30.61,33.82,36.48,13.42,46.03,1008.79,1997.05,2813.35,2616.67,2994.18,600.11,576.73,14.40,0000 0000 0000 0000 000000
2018-04-27 12:08:12,0.11,1.59,0.00,30.59,33.82,36.49,13.41,46.15,1008.77,1997.02,2811.17,2615.28,2992.54,599.75,576.42,14.45,0000 0000 0000 0000 000000
2018-04-27 12:13:13,0.13,1.59,0.00,30.59,33.82,36.49,13.38,46.11,1008.66,1997.01,2809.02,2613.72,2990.84,599.73,576.34,14.50,0000 0000 0000 0000 000000
2018-04-27 12:18:14,0.11,1.60,0.00,30.58,33.82,36.49,13.41,46.15,1008.54,1997.01,2806.92,2612.27,2989.17,600.08,576.57,14.56,0000 0000 0000 0000 000000
2018-04-27 12:23:15,0.20,1.61,0.00,30.56,33.80,36.48,13.50,46.05,1008.48,1997.01,2803.82,2610.07,2986.63,600.63,577.05,14.61,0000 0000 0000 0000 000000
2018-04-27 12:28:17,0.23,1.62,0.00,30.54,33.80,36.48,13.40,46.06,1008.43,1997.01,2799.90,2607.33,2983.49,599.87,576.47,14.66,0000 0000 0000 0000 000000
2018-04-27 12:33:18,0.24,1.63,0.00,30.54,33.80,36.47,13.45,46.22,1008.53,1997.01,2795.71,2604.31,2980.11,600.40,577.00,14.71,0000 0000 0000 0000 000000
2018-04-27 12:38:19,0.20,1.64,0.00,30.51,33.79,36.46,13.40,46.10,1008.59,1997.01,2792.11,2601.72,2977.27,599.73,576.42,14.76,0000 0000 0000 0000 000000
2018-04-27 12:43:20,0.18,1.65,0.00,30.50,33.77,36.45,13.32,46.00,1008.57,1997.01,2788.76,2599.43,2974.60,599.92,576.58,14.81,0000 0000 0000 0000 000000
2018-04-27 12:48:21,0.19,1.66,0.00,30.49,33.77,36.45,13.42,46.15,1008.61,1997.02,2785.51,2597.26,2972.07,600.05,576.72,14.86,0000 0000 0000 0000 000000
2018-04-27 12:53:23,0.20,1.67,0.00,30.47,33.76,36.45,13.51,46.08,1008.72,1997.04,2782.00,2594.87,2969.39,600.48,577.31,14.91,0000 0000 0000 0000 000000